Time,TemperatureF,DewpointF,PressureIn,WindDirection,WindDirectionDegrees,WindSpeedMPH,WindSpeedGustMPH,Humidity,HourlyPrecipIn,Conditions,Clouds,dailyrainin,SoftwareType,DateUTC
2013-01-25 00:01:00,57.0,47.0,-100.00,ENE,69,9.0,14.0,70,-99.99,,,-99.99,,2013-01-25 08:01:00,
2013-01-25 00:11:00,57.0,47.0,-100.00,East,80,9.0,16.0,70,-99.99,,,-99.99,,2013-01-25 08:11:00,
2013-01-25 00:21:00,57.0,47.0,-100.00,East,82,10.0,14.0,70,-99.99,,,-99.99,,2013-01-25 08:21:00,
2013-01-25 00:32:00,57.0,47.0,-100.00,East,87,9.0,14.0,70,-99.99,,,-99.99,,2013-01-25 08:32:00,
2013-01-25 00:41:00,57.0,47.0,-100.00,East,86,8.0,17.0,70,-99.99,,,-99.99,,2013-01-25 08:41:00,
2013-01-25 00:52:00,56.0,47.0,-100.00,East,92,6.0,11.0,71,-99.99,,,-99.99,,2013-01-25 08:52:00,
2013-01-25 01:01:00,56.0,47.0,-100.00,East,79,6.0,10.0,71,-99.99,,,-99.99,,2013-01-25 09:01:00,
2013-01-25 01:11:00,56.0,47.0,-100.00,East,90,5.0,7.0,71,-99.99,,,-99.99,,2013-01-25 09:11:00,
2013-01-25 01:21:00,56.0,47.0,-100.00,East,81,6.0,10.0,71,-99.99,,,-99.99,,2013-01-25 09:21:00,
2013-01-25 01:31:00,57.0,47.0,-100.00,East,80,7.0,10.0,70,-99.99,,,-99.99,,2013-01-25 09:31:00,
2013-01-25 01:41:00,56.0,47.0,-100.00,ENE,78,6.0,11.0,71,-99.99,,,-99.99,,2013-01-25 09:41:00,
2013-01-25 01:51:00,57.0,47.0,-100.00,East,82,7.0,12.0,70,-99.99,,,-99.99,,2013-01-25 09:51:00,
2013-01-25 02:01:00,57.0,48.0,-100.00,ENE,67,8.0,11.0,71,-99.99,,,-99.99,,2013-01-25 10:01:00,
2013-01-25 02:11:00,56.0,47.0,-100.00,East,81,8.0,11.0,72,-99.99,,,-99.99,,2013-01-25 10:11:00,
2013-01-25 02:21:00,56.0,46.0,-100.00,ENE,72,7.0,10.0,70,-99.99,,,-99.99,,2013-01-25 10:21:00,
2013-01-25 02:31:00,56.0,47.0,-100.00,ENE,63,5.0,7.0,71,-99.99,,,-99.99,,2013-01-25 10:31:00,
2013-01-25 02:41:00,56.0,47.0,-100.00,ENE,62,3.0,6.0,72,-99.99,,,-99.99,,2013-01-25 10:41:00,
2013-01-25 02:51:00,55.0,47.0,-100.00,SE,124,1.0,3.0,75,-99.99,,,-99.99,,2013-01-25 10:51:00,
2013-01-25 03:02:00,55.0,46.0,-100.00,NE,55,5.0,8.0,72,-99.99,,,-99.99,,2013-01-25 11:02:00,
2013-01-25 03:11:00,55.0,45.0,-100.00,ENE,68,6.0,9.0,69,-99.99,,,-99.99,,2013-01-25 11:11:00,
2013-01-25 03:21:00,56.0,46.0,-100.00,ENE,74,6.0,10.0,69,-99.99,,,-99.99,,2013-01-25 11:21:00,
2013-01-25 03:32:00,56.0,46.0,-100.00,ENE,76,5.0,7.0,70,-99.99,,,-99.99,,2013-01-25 11:32:00,
2013-01-25 03:42:00,55.0,45.0,-100.00,ENE,70,4.0,7.0,70,-99.99,,,-99.99,,2013-01-25 11:42:00,
2013-01-25 03:52:00,55.0,46.0,-100.00,ENE,60,5.0,7.0,72,-99.99,,,-99.99,,2013-01-25 11:52:00,
2013-01-25 04:02:00,55.0,46.0,-100.00,ENE,60,5.0,7.0,72,-99.99,,,-99.99,,2013-01-25 12:02:00,
2013-01-25 04:11:00,55.0,46.0,-100.00,NE,49,5.0,7.0,72,-99.99,,,-99.99,,2013-01-25 12:11:00,
2013-01-25 04:21:00,54.0,46.0,-100.00,NE,50,4.0,6.0,73,-99.99,,,-99.99,,2013-01-25 12:21:00,
2013-01-25 04:32:00,55.0,47.0,-100.00,NE,42,5.0,8.0,73,-99.99,,,-99.99,,2013-01-25 12:32:00,
2013-01-25 04:42:00,55.0,47.0,-100.00,ENE,63,5.0,9.0,73,-99.99,,,-99.99,,2013-01-25 12:42:00,
2013-01-25 04:52:00,55.0,46.0,-100.00,East,79,8.0,11.0,72,-99.99,,,-99.99,,2013-01-25 12:52:00,
2013-01-25 05:02:00,54.0,45.0,-100.00,ENE,74,7.0,11.0,71,-99.99,,,-99.99,,2013-01-25 13:02:00,
2013-01-25 05:11:00,53.0,43.0,-100.00,ENE,69,6.0,11.0,70,-99.99,,,-99.99,,2013-01-25 13:11:00,
2013-01-25 05:21:00,53.0,42.0,-100.00,ENE,62,8.0,13.0,65,-99.99,,,-99.99,,2013-01-25 13:21:00,
2013-01-25 05:32:00,54.0,42.0,-100.00,ENE,65,8.0,12.0,64,-99.99,,,-99.99,,2013-01-25 13:32:00,
2013-01-25 05:42:00,54.0,42.0,-100.00,ENE,64,7.0,11.0,64,-99.99,,,-99.99,,2013-01-25 13:42:00,
2013-01-25 05:52:00,54.0,42.0,-100.00,ENE,69,8.0,11.0,64,-99.99,,,-99.99,,2013-01-25 13:52:00,
2013-01-25 06:02:00,54.0,42.0,-100.00,ENE,70,8.0,13.0,63,-99.99,,,-99.99,,2013-01-25 14:02:00,
2013-01-25 06:12:00,54.0,42.0,-100.00,ENE,69,7.0,15.0,64,-99.99,,,-99.99,,2013-01-25 14:12:00,
2013-01-25 06:22:00,55.0,43.0,-100.00,ENE,60,12.0,18.0,64,-99.99,,,-99.99,,2013-01-25 14:22:00,
2013-01-25 06:32:00,55.0,43.0,-100.00,ENE,62,13.0,20.0,63,-99.99,,,-99.99,,2013-01-25 14:32:00,
2013-01-25 06:41:00,55.0,43.0,-100.00,ENE,61,12.0,18.0,64,-99.99,,,-99.99,,2013-01-25 14:41:00,
2013-01-25 06:52:00,54.0,43.0,-100.00,ENE,65,10.0,17.0,67,-99.99,,,-99.99,,2013-01-25 14:52:00,
2013-01-25 07:02:00,53.0,45.0,-100.00,ENE,65,6.0,10.0,74,-99.99,,,-99.99,,2013-01-25 15:02:00,
2013-01-25 07:11:00,53.0,45.0,-100.00,ENE,63,5.0,9.0,74,-99.99,,,-99.99,,2013-01-25 15:11:00,
2013-01-25 07:22:00,53.0,45.0,-100.00,ENE,63,5.0,9.0,74,-99.99,,,-99.99,,2013-01-25 15:22:00,
2013-01-25 07:32:00,53.0,45.0,-100.00,ENE,72,6.0,10.0,73,-99.99,,,-99.99,,2013-01-25 15:32:00,
2013-01-25 07:42:00,52.0,44.0,-100.00,ENE,63,5.0,10.0,75,-99.99,,,-99.99,,2013-01-25 15:42:00,
2013-01-25 07:52:00,52.0,44.0,-100.00,ENE,68,4.0,7.0,75,-99.99,,,-99.99,,2013-01-25 15:52:00,
2013-01-25 08:02:00,52.0,46.0,-100.00,NE,49,1.0,3.0,79,-99.99,,,-99.99,,2013-01-25 16:02:00,
2013-01-25 08:11:00,51.0,45.0,-100.00,ENE,74,2.0,6.0,81,-99.99,,,-99.99,,2013-01-25 16:11:00,
2013-01-25 08:22:00,51.0,45.0,-100.00,ENE,71,4.0,5.0,81,-99.99,,,-99.99,,2013-01-25 16:22:00,
2013-01-25 08:32:00,50.0,46.0,-100.00,NNE,26,2.0,5.0,85,-99.99,,,-99.99,,2013-01-25 16:32:00,
2013-01-25 08:42:00,51.0,48.0,-100.00,NW,311,1.0,3.0,88,-99.99,,,-99.99,,2013-01-25 16:42:00,
2013-01-25 08:52:00,51.0,47.0,-100.00,East,82,4.0,6.0,86,-99.99,,,-99.99,,2013-01-25 16:52:00,
2013-01-25 09:01:00,51.0,47.0,-100.00,NNE,12,2.0,4.0,86,-99.99,,,-99.99,,2013-01-25 17:01:00,
2013-01-25 09:11:00,52.0,48.0,-100.00,ENE,71,4.0,7.0,86,-99.99,,,-99.99,,2013-01-25 17:11:00,
2013-01-25 09:22:00,52.0,48.0,-100.00,ENE,75,2.0,5.0,86,-99.99,,,-99.99,,2013-01-25 17:22:00,
2013-01-25 09:32:00,52.0,48.0,-100.00,ENE,59,2.0,4.0,85,-99.99,,,-99.99,,2013-01-25 17:32:00,
2013-01-25 09:42:00,52.0,47.0,-100.00,East,80,4.0,8.0,83,-99.99,,,-99.99,,2013-01-25 17:42:00,
2013-01-25 09:52:00,52.0,47.0,-100.00,East,94,4.0,8.0,83,-99.99,,,-99.99,,2013-01-25 17:52:00,
2013-01-25 10:02:00,51.0,47.0,-100.00,ENE,73,7.0,12.0,85,-99.99,,,-99.99,,2013-01-25 18:02:00,
2013-01-25 10:11:00,51.0,47.0,-100.00,ENE,73,7.0,12.0,85,-99.99,,,-99.99,,2013-01-25 18:11:00,
2013-01-25 10:23:00,51.0,48.0,-100.00,NE,54,6.0,12.0,88,-99.99,,,-99.99,,2013-01-25 18:23:00,
2013-01-25 10:32:00,51.0,47.0,-100.00,ENE,60,7.0,11.0,86,-99.99,,,-99.99,,2013-01-25 18:32:00,
2013-01-25 10:42:00,51.0,47.0,-100.00,ENE,63,6.0,10.0,86,-99.99,,,-99.99,,2013-01-25 18:42:00,
2013-01-25 10:52:00,52.0,47.0,-100.00,NE,52,9.0,14.0,84,-99.99,,,-99.99,,2013-01-25 18:52:00,
2013-01-25 11:02:00,52.0,47.0,-100.00,ENE,59,8.0,15.0,84,-99.99,,,-99.99,,2013-01-25 19:02:00,
2013-01-25 11:12:00,52.0,47.0,-100.00,ENE,59,8.0,15.0,84,-99.99,,,-99.99,,2013-01-25 19:12:00,
2013-01-25 11:21:00,52.0,47.0,-100.00,ENE,59,8.0,15.0,84,-99.99,,,-99.99,,2013-01-25 19:21:00,
2013-01-25 11:32:00,53.0,48.0,-100.00,NE,51,11.0,15.0,82,-99.99,,,-99.99,,2013-01-25 19:32:00,
2013-01-25 11:42:00,53.0,48.0,-100.00,ENE,61,7.0,13.0,84,-99.99,,,-99.99,,2013-01-25 19:42:00,
2013-01-25 11:52:00,53.0,48.0,-100.00,NE,46,9.0,15.0,82,-99.99,,,-99.99,,2013-01-25 19:52:00,
2013-01-25 12:01:00,53.0,48.0,-100.00,ENE,66,6.0,10.0,82,-99.99,,,-99.99,,2013-01-25 20:01:00,
2013-01-25 12:11:00,53.0,48.0,-100.00,ENE,61,8.0,12.0,84,-99.99,,,-99.99,,2013-01-25 20:11:00,
2013-01-25 12:22:00,53.0,48.0,-100.00,ENE,59,8.0,14.0,84,-99.99,,,-99.99,,2013-01-25 20:22:00,
2013-01-25 12:32:00,53.0,48.0,-100.00,NE,53,9.0,13.0,84,-99.99,,,-99.99,,2013-01-25 20:32:00,
2013-01-25 12:42:00,53.0,48.0,-100.00,NE,53,8.0,14.0,84,-99.99,,,-99.99,,2013-01-25 20:42:00,
2013-01-25 12:52:00,53.0,49.0,-100.00,East,79,5.0,9.0,85,-99.99,,,-99.99,,2013-01-25 20:52:00,
2013-01-25 13:01:00,52.0,48.0,-100.00,SSE,150,4.0,7.0,86,-99.99,,,-99.99,,2013-01-25 21:01:00,
2013-01-25 13:11:00,52.0,49.0,-100.00,ENE,60,6.0,9.0,88,-99.99,,,-99.99,,2013-01-25 21:11:00,
2013-01-25 13:22:00,52.0,49.0,-100.00,NE,37,6.0,9.0,89,-99.99,,,-99.99,,2013-01-25 21:22:00,
2013-01-25 13:32:00,52.0,49.0,-100.00,NE,51,7.0,10.0,88,-99.99,,,-99.99,,2013-01-25 21:32:00,
2013-01-25 13:42:00,52.0,49.0,-100.00,NE,51,5.0,7.0,89,-99.99,,,-99.99,,2013-01-25 21:42:00,
2013-01-25 13:51:00,52.0,49.0,-100.00,NE,53,5.0,9.0,89,-99.99,,,-99.99,,2013-01-25 21:51:00,
2013-01-25 14:02:00,52.0,49.0,-100.00,ENE,63,5.0,7.0,89,-99.99,,,-99.99,,2013-01-25 22:02:00,
2013-01-25 14:11:00,53.0,50.0,-100.00,ENE,58,5.0,7.0,90,-99.99,,,-99.99,,2013-01-25 22:11:00,
2013-01-25 14:21:00,53.0,50.0,-100.00,ENE,69,4.0,7.0,89,-99.99,,,-99.99,,2013-01-25 22:21:00,
2013-01-25 14:32:00,53.0,50.0,-100.00,SE,135,1.0,3.0,89,-99.99,,,-99.99,,2013-01-25 22:32:00,
2013-01-25 14:42:00,53.0,50.0,-100.00,SSW,197,4.0,8.0,89,-99.99,,,-99.99,,2013-01-25 22:42:00,
2013-01-25 14:51:00,52.0,49.0,-100.00,NE,54,3.0,5.0,89,-99.99,,,-99.99,,2013-01-25 22:51:00,
2013-01-25 15:01:00,53.0,50.0,-100.00,ENE,60,3.0,6.0,90,-99.99,,,-99.99,,2013-01-25 23:01:00,
2013-01-25 15:11:00,53.0,50.0,-100.00,NE,51,5.0,7.0,90,-99.99,,,-99.99,,2013-01-25 23:11:00,
2013-01-25 15:22:00,52.0,49.0,-100.00,NNE,29,5.0,8.0,91,-99.99,,,-99.99,,2013-01-25 23:22:00,
2013-01-25 15:31:00,52.0,49.0,-100.00,NNE,29,5.0,7.0,91,-99.99,,,-99.99,,2013-01-25 23:31:00,
2013-01-25 15:42:00,53.0,50.0,-100.00,NE,49,5.0,8.0,91,-99.99,,,-99.99,,2013-01-25 23:42:00,
2013-01-25 15:52:00,53.0,50.0,-100.00,NE,51,8.0,12.0,91,-99.99,,,-99.99,,2013-01-25 23:52:00,
2013-01-25 16:01:00,53.0,50.0,-100.00,NNE,31,5.0,8.0,90,-99.99,,,-99.99,,2013-01-26 00:01:00,
2013-01-25 16:11:00,53.0,50.0,-100.00,ENE,70,4.0,7.0,90,-99.99,,,-99.99,,2013-01-26 00:11:00,
2013-01-25 16:22:00,53.0,50.0,-100.00,ENE,64,5.0,8.0,90,-99.99,,,-99.99,,2013-01-26 00:22:00,
2013-01-25 16:32:00,54.0,51.0,-100.00,NE,48,4.0,10.0,88,-99.99,,,-99.99,,2013-01-26 00:32:00,
2013-01-25 16:41:00,54.0,50.0,-100.00,ENE,77,4.0,9.0,85,-99.99,,,-99.99,,2013-01-26 00:41:00,
2013-01-25 16:52:00,54.0,49.0,-100.00,East,88,7.0,12.0,83,-99.99,,,-99.99,,2013-01-26 00:52:00,
2013-01-25 17:01:00,54.0,49.0,-100.00,East,86,8.0,12.0,83,-99.99,,,-99.99,,2013-01-26 01:01:00,
2013-01-25 17:11:00,54.0,49.0,-100.00,East,81,7.0,11.0,83,-99.99,,,-99.99,,2013-01-26 01:11:00,
2013-01-25 17:22:00,53.0,48.0,-100.00,ENE,71,8.0,13.0,83,-99.99,,,-99.99,,2013-01-26 01:22:00,
2013-01-25 17:31:00,53.0,48.0,-100.00,ENE,76,7.0,12.0,84,-99.99,,,-99.99,,2013-01-26 01:31:00,
2013-01-25 17:42:00,53.0,48.0,-100.00,East,87,7.0,12.0,84,-99.99,,,-99.99,,2013-01-26 01:42:00,
2013-01-25 17:52:00,53.0,49.0,-100.00,East,81,6.0,9.0,85,-99.99,,,-99.99,,2013-01-26 01:52:00,
2013-01-25 18:01:00,52.0,48.0,-100.00,East,87,4.0,7.0,87,-99.99,,,-99.99,,2013-01-26 02:01:00,
2013-01-25 18:11:00,52.0,48.0,-100.00,East,91,3.0,5.0,87,-99.99,,,-99.99,,2013-01-26 02:11:00,
2013-01-25 18:22:00,52.0,49.0,-100.00,East,87,2.0,4.0,88,-99.99,,,-99.99,,2013-01-26 02:22:00,
2013-01-25 18:32:00,52.0,49.0,-100.00,ENE,65,4.0,7.0,88,-99.99,,,-99.99,,2013-01-26 02:32:00,
2013-01-25 18:42:00,52.0,49.0,-100.00,ENE,63,3.0,6.0,89,-99.99,,,-99.99,,2013-01-26 02:42:00,
2013-01-25 18:52:00,52.0,49.0,-100.00,NE,55,3.0,5.0,90,-99.99,,,-99.99,,2013-01-26 02:52:00,
2013-01-25 19:01:00,52.0,49.0,-100.00,ENE,67,3.0,5.0,90,-99.99,,,-99.99,,2013-01-26 03:01:00,
2013-01-25 19:11:00,51.0,48.0,-100.00,ENE,60,4.0,5.0,91,-99.99,,,-99.99,,2013-01-26 03:11:00,
2013-01-25 19:21:00,51.0,48.0,-100.00,NE,51,4.0,6.0,91,-99.99,,,-99.99,,2013-01-26 03:21:00,
2013-01-25 19:31:00,52.0,49.0,-100.00,NE,43,3.0,6.0,91,-99.99,,,-99.99,,2013-01-26 03:31:00,
2013-01-25 19:42:00,51.0,49.0,-100.00,NNE,25,1.0,4.0,92,-99.99,,,-99.99,,2013-01-26 03:42:00,
2013-01-25 19:51:00,51.0,49.0,-100.00,ENE,61,4.0,6.0,93,-99.99,,,-99.99,,2013-01-26 03:51:00,
2013-01-25 20:01:00,51.0,49.0,-100.00,ENE,64,4.0,5.0,92,-99.99,,,-99.99,,2013-01-26 04:01:00,
2013-01-25 20:12:00,51.0,49.0,-100.00,ENE,74,3.0,5.0,92,-99.99,,,-99.99,,2013-01-26 04:12:00,
2013-01-25 20:21:00,52.0,50.0,-100.00,ENE,69,4.0,6.0,92,-99.99,,,-99.99,,2013-01-26 04:21:00,
2013-01-25 20:32:00,52.0,50.0,-100.00,WSW,246,2.0,4.0,93,-99.99,,,-99.99,,2013-01-26 04:32:00,
2013-01-25 20:42:00,52.0,50.0,-100.00,WSW,246,2.0,4.0,93,-99.99,,,-99.99,,2013-01-26 04:42:00,
2013-01-25 20:52:00,52.0,50.0,-100.00,North,353,1.0,2.0,92,-99.99,,,-99.99,,2013-01-26 04:52:00,
2013-01-25 21:02:00,52.0,50.0,-100.00,NNW,348,1.0,3.0,92,-99.99,,,-99.99,,2013-01-26 05:02:00,
2013-01-25 21:12:00,52.0,50.0,-100.00,NNW,329,2.0,3.0,93,-99.99,,,-99.99,,2013-01-26 05:12:00,
2013-01-25 21:22:00,52.0,50.0,-100.00,NW,323,1.0,1.0,93,-99.99,,,-99.99,,2013-01-26 05:22:00,
2013-01-25 21:33:00,52.0,50.0,-100.00,ENE,68,1.0,1.0,93,-99.99,,,-99.99,,2013-01-26 05:33:00,
2013-01-25 21:41:00,52.0,50.0,-100.00,WSW,245,1.0,2.0,93,-99.99,,,-99.99,,2013-01-26 05:41:00,
2013-01-25 21:52:00,52.0,50.0,-100.00,West,266,1.0,3.0,93,-99.99,,,-99.99,,2013-01-26 05:52:00,
2013-01-25 22:02:00,51.0,49.0,-100.00,SSE,153,4.0,6.0,94,-99.99,,,-99.99,,2013-01-26 06:02:00,
2013-01-25 22:11:00,51.0,50.0,-100.00,South,189,2.0,4.0,95,-99.99,,,-99.99,,2013-01-26 06:11:00,
2013-01-25 22:21:00,51.0,50.0,-100.00,WNW,291,1.0,2.0,95,-99.99,,,-99.99,,2013-01-26 06:21:00,
2013-01-25 22:31:00,51.0,50.0,-100.00,SW,216,1.0,4.0,95,-99.99,,,-99.99,,2013-01-26 06:31:00,
2013-01-25 22:41:00,51.0,50.0,-100.00,SE,129,3.0,5.0,95,-99.99,,,-99.99,,2013-01-26 06:41:00,
2013-01-25 22:51:00,51.0,50.0,-100.00,WNW,295,1.0,2.0,95,-99.99,,,-99.99,,2013-01-26 06:51:00,
2013-01-25 23:01:00,51.0,50.0,-100.00,North,8,1.0,1.0,95,-99.99,,,-99.99,,2013-01-26 07:01:00,
2013-01-25 23:11:00,51.0,50.0,-100.00,NNE,17,1.0,2.0,95,-99.99,,,-99.99,,2013-01-26 07:11:00,
2013-01-25 23:21:00,51.0,50.0,-100.00,NNE,32,1.0,1.0,95,-99.99,,,-99.99,,2013-01-26 07:21:00,
2013-01-25 23:33:00,51.0,50.0,-100.00,NNW,327,2.0,4.0,95,-99.99,,,-99.99,,2013-01-26 07:33:00,
2013-01-25 23:41:00,51.0,50.0,-100.00,NNW,330,1.0,3.0,96,-99.99,,,-99.99,,2013-01-26 07:41:00,
2013-01-25 23:51:00,51.0,50.0,-100.00,NE,35,2.0,3.0,96,-99.99,,,-99.99,,2013-01-26 07:51:00,